Dublin, Ireland

5:55 PM GMT on February 24, 2017 (GMT +0000)
Dublin International

Weather History for EIDW - November, 2013

Change the Weather History Date:

Friday, November 15, 2013

  Actual Average Record
Temperature  
Mean Temperature 46 °F -  
Max Temperature 50 °F 48 °F 62 °F (1997)
Min Temperature 43 °F 39 °F 28 °F (2010)
Degree Days  
Heating Degree Days 18    
Moisture  
Dew Point 42 °F    
Average Humidity 80    
Maximum Humidity 87    
Minimum Humidity 74    
Precipitation  
Precipitation 0.00 in 0.09 in - ()
Sea Level Pressure  
Sea Level Pressure 30.54 in    
Wind  
Wind Speed 9 mph ()    
Max Wind Speed 15 mph    
Max Gust Speed -    
Visibility 7.1 miles    
Events      
Averages and records for this station are not official NWS values.
T = Trace of Precipitation, MM = Missing Value Source: Averaged Metar Reports

Daily Weather History Graph

Daily Weather History Graph

Search for Another Location

Airport or City:

Trip Planner

Search our weather history database for the weather conditions in past years. The results will help you decide how hot, cold, wet, or windy it might be!

Date:

Astronomy

Nov. 15, 2013 Rise Set
Actual Time 7:50 AM GMT 4:28 PM GMT
Civil Twilight 7:11 AM GMT 5:07 PM GMT
Nautical Twilight 6:28 AM GMT 5:49 PM GMT
Astronomical Twilight 5:47 AM GMT 6:30 PM GMT
Moon 3:30 PM GMT (11/15) 5:15 AM GMT (11/15)
Length of Visible Light 9h 55m
Length of Day
8h 37m
Waxing Gibbous, 95% of the Moon is Illuminated
Nov 15
Waxing Gibbous
Nov 17
Full
Nov 25
Last Quarter
Dec 3
New
Dec 9
First Quarter

Hourly Weather History & Observations

Time (GMT) Temp. Windchill Dew Point Humidity Pressure Visibility Wind Dir Wind Speed Gust Speed Precip Events Conditions
12:00 AM 44 °F - 39 °F 76% 30.61 in 19 mi West 8.9 mph - -   Mostly Cloudy
12:00 AM 44.6 °F 40.2 °F 39.2 °F 81% 30.60 in 6.2 mi West 8.1 mph - N/A   Mostly Cloudy
12:30 AM 44.6 °F 40.2 °F 39.2 °F 81% 30.57 in 6.2 mi WSW 8.1 mph - N/A   Mostly Cloudy
1:00 AM 44.6 °F 39.2 °F 39.2 °F 81% 30.57 in 6.2 mi West 10.4 mph - N/A   Mostly Cloudy
1:30 AM 44.6 °F 38.4 °F 39.2 °F 81% 30.57 in 6.2 mi West 12.7 mph - N/A   Mostly Cloudy
2:00 AM 44.6 °F 38.8 °F 41.0 °F 87% 30.57 in 6.2 mi West 11.5 mph - N/A   Mostly Cloudy
2:30 AM 44.6 °F 39.7 °F 39.2 °F 81% 30.57 in 6.2 mi WSW 9.2 mph - N/A   Mostly Cloudy
3:00 AM 44.6 °F 39.7 °F 39.2 °F 81% 30.57 in 6.2 mi WSW 9.2 mph - N/A   Mostly Cloudy
3:30 AM 44.6 °F 39.2 °F 39.2 °F 81% 30.57 in 6.2 mi West 10.4 mph - N/A   Mostly Cloudy
4:00 AM 44.6 °F 39.7 °F 39.2 °F 81% 30.57 in 6.2 mi West 9.2 mph - N/A   Mostly Cloudy
4:30 AM 44.6 °F 39.7 °F 39.2 °F 81% 30.54 in 6.2 mi West 9.2 mph - N/A   Mostly Cloudy
5:00 AM 44.6 °F 39.7 °F 39.2 °F 81% 30.54 in 6.2 mi West 9.2 mph - N/A   Mostly Cloudy
5:30 AM 44.6 °F 40.7 °F 39.2 °F 81% 30.54 in 6.2 mi West 6.9 mph - N/A   Mostly Cloudy
6:00 AM 44 °F - 40 °F 79% 30.57 in 19 mi West 6.7 mph - -   Mostly Cloudy
6:00 AM 44.6 °F 40.7 °F 39.2 °F 81% 30.54 in 6.2 mi West 6.9 mph - N/A   Mostly Cloudy
6:30 AM 44.6 °F 41.4 °F 39.2 °F 81% 30.54 in 6.2 mi WSW 5.8 mph - N/A   Mostly Cloudy
7:00 AM 44.6 °F 39.7 °F 39.2 °F 81% 30.54 in 6.2 mi WSW 9.2 mph - N/A   Mostly Cloudy
7:30 AM 44.6 °F 40.2 °F 39.2 °F 81% 30.54 in 6.2 mi WSW 8.1 mph - N/A   Mostly Cloudy
8:00 AM 44.6 °F 39.2 °F 39.2 °F 81% 30.57 in 6.2 mi WSW 10.4 mph - N/A   Overcast
8:30 AM 44.6 °F 38.4 °F 41.0 °F 87% 30.57 in 6.2 mi West 12.7 mph - N/A   Overcast
9:00 AM 46.4 °F 41.5 °F 41.0 °F 81% 30.57 in 6.2 mi West 10.4 mph - N/A   Overcast
9:30 AM 46.4 °F 41.5 °F 41.0 °F 81% 30.57 in 6.2 mi West 10.4 mph - N/A   Overcast
10:00 AM 46.4 °F 41.9 °F 41.0 °F 81% 30.57 in 6.2 mi WSW 9.2 mph - N/A   Overcast
10:30 AM 46.4 °F 41.9 °F 42.8 °F 87% 30.57 in 6.2 mi WSW 9.2 mph - N/A   Overcast
11:00 AM 48.2 °F - 42.8 °F 82% 30.57 in 6.2 mi WSW 9.2 mph - N/A   Overcast
11:30 AM 48.2 °F - 42.8 °F 82% 30.54 in 6.2 mi WSW 10.4 mph - N/A   Mostly Cloudy
12:00 PM 49 °F - 43 °F 74% 30.57 in 19 mi WSW 8.9 mph - -   Mostly Cloudy
12:00 PM 48.2 °F - 42.8 °F 82% 30.54 in 6.2 mi WSW 9.2 mph - N/A   Mostly Cloudy
12:30 PM 50.0 °F - 42.8 °F 76% 30.54 in 6.2 mi West 12.7 mph - N/A   Mostly Cloudy
1:00 PM 50.0 °F - 42.8 °F 76% 30.54 in 6.2 mi WSW 12.7 mph - N/A   Mostly Cloudy
1:30 PM 50.0 °F - 44.6 °F 82% 30.51 in 6.2 mi WSW 12.7 mph - N/A   Mostly Cloudy
2:00 PM 50.0 °F - 44.6 °F 82% 30.51 in 6.2 mi WSW 12.7 mph - N/A   Mostly Cloudy
2:30 PM 50.0 °F - 44.6 °F 82% 30.51 in 6.2 mi WSW 11.5 mph - N/A   Mostly Cloudy
3:00 PM 50.0 °F - 44.6 °F 82% 30.51 in 6.2 mi WSW 11.5 mph - N/A   Mostly Cloudy
3:30 PM 50.0 °F - 44.6 °F 82% 30.51 in 6.2 mi West 15.0 mph - N/A   Mostly Cloudy
4:00 PM 50.0 °F - 44.6 °F 82% 30.51 in 6.2 mi West 15.0 mph - N/A   Mostly Cloudy
4:30 PM 50.0 °F - 44.6 °F 82% 30.51 in 6.2 mi West 12.7 mph - N/A   Overcast
5:00 PM 50.0 °F - 44.6 °F 82% 30.51 in 6.2 mi West 12.7 mph - N/A   Overcast
5:30 PM 50.0 °F - 44.6 °F 82% 30.51 in 6.2 mi West 12.7 mph - N/A   Overcast
6:00 PM 49 °F - 43 °F 74% 30.53 in 16 mi West 13.4 mph - -   Overcast
6:00 PM 50.0 °F - 42.8 °F 76% 30.51 in 6.2 mi West 15.0 mph - N/A   Overcast
6:30 PM 50.0 °F - 42.8 °F 76% 30.51 in 6.2 mi West 12.7 mph - N/A   Overcast
7:00 PM 50.0 °F - 42.8 °F 76% 30.51 in 6.2 mi West 8.1 mph - N/A   Overcast
7:30 PM 50.0 °F - 42.8 °F 76% 30.51 in 6.2 mi West 9.2 mph - N/A   Overcast
8:00 PM 50.0 °F - 42.8 °F 76% 30.54 in 6.2 mi WSW 8.1 mph - N/A   Overcast
8:30 PM 50.0 °F - 42.8 °F 76% 30.54 in 6.2 mi WSW 8.1 mph - N/A   Overcast
9:00 PM 48.2 °F - 42.8 °F 82% 30.51 in 6.2 mi WSW 8.1 mph - N/A   Overcast
9:30 PM 50.0 °F - 42.8 °F 76% 30.51 in 6.2 mi WSW 8.1 mph - N/A   Overcast
10:00 PM 50.0 °F - 42.8 °F 76% 30.51 in 6.2 mi WSW 6.9 mph - N/A   Overcast
10:30 PM 48.2 °F - 42.8 °F 82% 30.51 in 6.2 mi WSW 6.9 mph - N/A   Overcast
11:00 PM 48.2 °F - 42.8 °F 82% 30.51 in 6.2 mi WSW 6.9 mph - N/A   Overcast
11:30 PM 48.2 °F - 42.8 °F 82% 30.51 in 6.2 mi WSW 8.1 mph - N/A   Overcast